Location: Newark
(54.2500°N, 9.1833°E)
Time: 14:10:25
(UTC+00:00)

A-11 Canister half - Pass Details

Date: 19 December 2019
Orbit: 1516 x 1683 km, 47.2° (Epoch: 18 January)

Event Time Altitude Azimuth Distance (km) Brightness Sun altitude
Rises 16:58:01 0° 282° (WNW) 4,860 12.7 -15.7°
Reaches altitude 10° 17:03:58 10° 255° (WSW) 3,903 12.5 -16.5°
Maximum altitude 17:07:12 12° 236° (SW) 3,754 12.1 -17.0°
Drops below altitude 10° 17:10:28 10° 216° (SW) 3,926 11.9 -17.4°
Sets 17:16:33 0° 189° (S) 4,923 12.0 -18.3°
